This is the latest recevied weather packets stored in our database for station/object KR4BRU. If no packets are shown the sender has not sent any weather packets the latest 10 day(s).
| Time | Temp. | Humidity | Pressure | Rain* | Wind** | Luminosity | Snow |
|---|---|---|---|---|---|---|---|
| 1778180062 | 20° C | 57% | 1010.4 hPa | 0 mm | - | 244 W/m² | - |
| 1778179456 | 20.56° C | 56% | 1010.1 hPa | 0 mm | - | 634 W/m² | - |
| 1778178856 | 20.56° C | 57% | 1010.3 hPa | 0 mm | - | 1137 W/m² | - |
| 1778178255 | 19.44° C | 59% | 1010.4 hPa | 0 mm | - | 251 W/m² | - |
| 1778177654 | 20° C | 58% | 1010.4 hPa | 0 mm | - | 394 W/m² | - |
| 1778177053 | 20.56° C | 55% | 1010.3 hPa | 0 mm | - | 509 W/m² | - |
| 1778176451 | 20.56° C | 56% | 1010.4 hPa | 0 mm | - | 445 W/m² | - |
| 1778175851 | 20.56° C | 57% | 1010.3 hPa | 0 mm | - | 1061 W/m² | - |
| 1778175252 | 20.56° C | 59% | 1010.6 hPa | 0 mm | - | 1028 W/m² | - |
| 1778174651 | 18.89° C | 58% | 1010.9 hPa | 0 mm | - | 680 W/m² | - |
| 1778174049 | 19.44° C | 65% | 1011 hPa | 0 mm | - | 593 W/m² | - |
| 1778173448 | 20° C | 63% | 1011.1 hPa | 0 mm | - | 443 W/m² | - |
| 1778172847 | 18.89° C | 66% | 1010.8 hPa | 0 mm | - | 571 W/m² | - |
| 1778172246 | 18.89° C | 66% | 1011.2 hPa | 0 mm | - | 488 W/m² | - |
| 1778171640 | 18.33° C | 69% | 1010.9 hPa | 0 mm | - | 498 W/m² | - |
| 1778171038 | 17.22° C | 74% | 1010.8 hPa | 0 mm | - | 417 W/m² | - |
| 1778170437 | 16.67° C | 79% | 1010.9 hPa | 0 mm | - | 309 W/m² | - |
| 1778169835 | 16.11° C | 79% | 1011.2 hPa | 0 mm | - | 205 W/m² | - |
| 1778169234 | 16.11° C | 83% | 1011 hPa | 0 mm | - | 187 W/m² | - |
| 1778168628 | 15.56° C | 83% | 1010.9 hPa | 0 mm | - | 135 W/m² | - |
| 1778168027 | 15.56° C | 83% | 1010.9 hPa | 0 mm | - | 94 W/m² | - |
| 1778167426 | 15.56° C | 84% | 1010.8 hPa | 0 mm | - | 120 W/m² | - |
| 1778166824 | 15.56° C | 85% | 1010.7 hPa | 0 mm | - | 93 W/m² | - |
| 1778166224 | 15° C | 86% | 1010.5 hPa | 0 mm | - | 101 W/m² | - |
| 1778165623 | 15° C | 85% | 1010.8 hPa | 0 mm | - | 92 W/m² | - |
* Rain latest hour (hover to see other rain measurements)
** Current wind speed in m/s (hover to see current wind gust speed)